Simultaneous Nadir Overpasses (SNOs) Predictions

Prediction of SNOs between GOES-17 and METOP-B Satellite Orbit:

Table of predicted SNOs for the next 14.0 days since TLE Epoch: 10/28/2023
Index Date Time (GOES-17) GOES-17 Lat,Lon METOP-B Lat,Lon Distance(km) Time Diff (sec)
1 10/28/2023 04:32:23 -0.00,-104.67 -0.23,-105.77 124.96 80
2 10/29/2023 04:09:04 -0.00,-104.67 0.89,-100.78 443.84 80
3 10/30/2023 16:27:55 -0.00,-104.69 0.13,-105.34 74.05 80
4 10/31/2023 16:09:56 -0.00,-104.69 -0.99,-100.35 494.99 80
5 11/02/2023 04:28:55 0.00,-104.67 -0.07,-104.94 31.40 80
6 11/04/2023 16:27:07 -0.00,-104.69 -0.05,-104.52 19.57 80
7 11/07/2023 04:22:47 -0.00,-104.68 0.14,-104.13 63.57 80
8 11/08/2023 16:41:37 0.00,-104.70 0.92,-108.69 454.54 80
9 11/09/2023 16:23:37 0.00,-104.71 -0.22,-103.70 115.11 80
